• In Russia
  • List of Countries
  • For 7 days
  • Water Temperature
  • Satellite Maps
  • Weather Map
  • Weather Widgets
  • user-avatar
    Login

    Hourly Weather Sharagol

    Today, 25 September, Tuesday

    Time Temperature Precipitation Wind Pressure Humidity
    00:00 0°C° 0 mm 1 mps 598 mmHg 73%
    01:00 0°C° 0 mm 1 mps 598 mmHg 71%
    02:00 0°C° 0 mm 1 mps 598 mmHg 71%
    03:00 0°C° 0 mm 1 mps 598 mmHg 71%
    04:00 0°C° 0 mm 1 mps 598 mmHg 72%
    05:00 -1°C° 0 mm 2 mps 598 mmHg 72%
    06:00 -1°C° 0 mm 2 mps 598 mmHg 72%
    07:00 +2°C° 0 mm 1 mps 598 mmHg 76%
    08:00 +3°C° 0 mm 2 mps 599 mmHg 71%
    09:00 +5°C° 0 mm 2 mps 599 mmHg 67%
    10:00 +7°C° 0 mm 2 mps 600 mmHg 62%
    11:00 +8°C° 0 mm 2 mps 600 mmHg 60%
    12:00 +9°C° 0 mm 2 mps 600 mmHg 57%
    13:00 +10°C° 0 mm 2 mps 600 mmHg 54%
    14:00 +10°C° 0 mm 2 mps 600 mmHg 57%
    15:00 +10°C° 0 mm 2 mps 600 mmHg 59%
    16:00 +9°C° 0 mm 2 mps 599 mmHg 62%
    17:00 +8°C° 0 mm 1 mps 599 mmHg 69%
    18:00 +6°C° 0 mm 1 mps 598 mmHg 76%
    19:00 +4°C° 0 mm 1 mps 598 mmHg 84%
    20:00 +4°C° 0.1 mm 1 mps 598 mmHg 86%
    21:00 +4°C° 0.1 mm 1 mps 598 mmHg 88%
    22:00 +4°C° 0.1 mm 1 mps 598 mmHg 91%
    23:00 +4°C° 0.8 mm 1 mps 598 mmHg 92%

    Tomorrow, 26 September, Wednesday

    Time Temperature Precipitation Wind Pressure Humidity
    00:00 +4°C° 0.8 mm 1 mps 598 mmHg 93%
    01:00 +4°C° 0.8 mm 1 mps 598 mmHg 95%
    02:00 +4°C° 1.7 mm 1 mps 598 mmHg 95%
    03:00 +3°C° 1.7 mm 1 mps 598 mmHg 96%
    04:00 +2°C° 1.7 mm 2 mps 598 mmHg 97%
    05:00 +2°C° 1.2 mm 2 mps 598 mmHg 97%
    06:00 +2°C° 1.2 mm 2 mps 598 mmHg 97%
    07:00 +2°C° 1.2 mm 2 mps 599 mmHg 97%
    08:00 +2°C° 0.6 mm 2 mps 599 mmHg 95%
    09:00 +2°C° 0.6 mm 2 mps 599 mmHg 92%
    10:00 +2°C° 0.6 mm 2 mps 599 mmHg 90%
    11:00 +2°C° 0.3 mm 3 mps 599 mmHg 87%
    12:00 +2°C° 0.3 mm 3 mps 599 mmHg 85%
    13:00 +2°C° 0.3 mm 3 mps 599 mmHg 83%
    14:00 +1°C° 0.3 mm 4 mps 599 mmHg 80%
    15:00 +1°C° 0.3 mm 5 mps 599 mmHg 77%
    16:00 0°C° 0.3 mm 5 mps 599 mmHg 74%
    17:00 -1°C° 0.2 mm 5 mps 599 mmHg 76%
    18:00 -3°C° 0.2 mm 4 mps 599 mmHg 78%
    19:00 -4°C° 0.2 mm 3 mps 599 mmHg 81%
    20:00 -4°C° 0.2 mm 3 mps 599 mmHg 82%
    21:00 -4°C° 0.2 mm 2 mps 599 mmHg 84%
    22:00 -4°C° 0.2 mm 2 mps 599 mmHg 85%
    23:00 -4°C° 0.2 mm 2 mps 599 mmHg 86%

    Day after tomorrow, 27 September, Thursday

    Time Temperature Precipitation Wind Pressure Humidity
    00:00 -4°C° 0.2 mm 2 mps 599 mmHg 87%
    01:00 -4°C° 0.2 mm 2 mps 599 mmHg 88%
    02:00 -5°C° 0.1 mm 2 mps 599 mmHg 88%
    03:00 -5°C° 0.1 mm 2 mps 599 mmHg 88%
    04:00 -6°C° 0.1 mm 2 mps 599 mmHg 88%
    05:00 -6°C° 0 mm 2 mps 599 mmHg 87%
    06:00 -6°C° 0 mm 2 mps 599 mmHg 86%
    07:00 -6°C° 0 mm 2 mps 600 mmHg 84%
    08:00 -4°C° 0 mm 2 mps 600 mmHg 78%
    09:00 -4°C° 0 mm 3 mps 600 mmHg 72%
    10:00 -1°C° 0 mm 3 mps 601 mmHg 65%
    11:00 -1°C° 0 mm 3 mps 600 mmHg 63%
    12:00 0°C° 0 mm 3 mps 600 mmHg 60%
    13:00 -1°C° 0 mm 4 mps 600 mmHg 58%
    14:00 -1°C° 0.1 mm 4 mps 600 mmHg 60%
    15:00 -1°C° 0.1 mm 4 mps 600 mmHg 62%
    16:00 -2°C° 0.1 mm 4 mps 599 mmHg 64%
    17:00 -2°C° 0.2 mm 3 mps 599 mmHg 71%
    18:00 -4°C° 0.2 mm 3 mps 599 mmHg 78%
    19:00 -4°C° 0.2 mm 2 mps 599 mmHg 84%
    20:00 -4°C° 0.1 mm 2 mps 600 mmHg 86%
    21:00 -4°C° 0.1 mm 2 mps 600 mmHg 88%
    22:00 -4°C° 0.1 mm 2 mps 601 mmHg 89%
    23:00 -5°C° 0.1 mm 2 mps 601 mmHg 90%

    28 September, Friday

    Time Temperature Precipitation Wind Pressure Humidity
    00:00 -5°C° 0.1 mm 2 mps 601 mmHg 90%
    01:00 -5°C° 0.1 mm 2 mps 600 mmHg 91%
    02:00 -5°C° 0.1 mm 2 mps 601 mmHg 90%
    03:00 -5°C° 0.1 mm 2 mps 601 mmHg 90%
    04:00 -5°C° 0.1 mm 2 mps 601 mmHg 90%
    05:00 -5°C° 0.2 mm 2 mps 601 mmHg 89%
    06:00 -5°C° 0.2 mm 2 mps 601 mmHg 89%
    07:00 -5°C° 0.2 mm 2 mps 602 mmHg 88%
    08:00 -4°C° 0.1 mm 2 mps 602 mmHg 83%
    09:00 -4°C° 0.1 mm 3 mps 602 mmHg 78%
    10:00 -2°C° 0.1 mm 3 mps 602 mmHg 73%
    11:00 -2°C° 0.1 mm 3 mps 602 mmHg 72%
    12:00 -2°C° 0.1 mm 3 mps 602 mmHg 72%
    13:00 -2°C° 0.1 mm 4 mps 602 mmHg 71%
    14:00 -1°C° 0.1 mm 3 mps 602 mmHg 72%
    15:00 -1°C° 0.1 mm 3 mps 603 mmHg 74%
    16:00 -1°C° 0.1 mm 3 mps 603 mmHg 75%
    17:00 -4°C° 0 mm 3 mps 603 mmHg 80%
    18:00 -4°C° 0 mm 2 mps 603 mmHg 85%
    19:00 -5°C° 0 mm 2 mps 603 mmHg 90%
    20:00 -4°C° 0 mm 1 mps 603 mmHg 91%
    21:00 -4°C° 0 mm 1 mps 603 mmHg 92%
    22:00 -4°C° 0 mm 1 mps 603 mmHg 92%
    23:00 -6°C° 0 mm 1 mps 603 mmHg 91%

    29 September, Saturday

    Time Temperature Precipitation Wind Pressure Humidity
    00:00 -6°C° 0 mm 1 mps 603 mmHg 89%
    01:00 -6°C° 0 mm 1 mps 603 mmHg 88%
    02:00 -6°C° 0 mm 1 mps 603 mmHg 86%
    03:00 -6°C° 0 mm 1 mps 603 mmHg 84%
    04:00 -6°C° 0 mm 1 mps 603 mmHg 82%
    05:00 -4°C° 0 mm 1 mps 603 mmHg 80%
    06:00 -6°C° 0 mm 2 mps 604 mmHg 78%
    07:00 -6°C° 0 mm 2 mps 604 mmHg 76%
    08:00 -4°C° 0 mm 2 mps 604 mmHg 72%
    09:00 -1°C° 0 mm 3 mps 605 mmHg 67%
    10:00 +1°C° 0 mm 3 mps 605 mmHg 63%
    11:00 +2°C° 0 mm 3 mps 605 mmHg 63%
    12:00 +3°C° 0 mm 3 mps 605 mmHg 63%
    13:00 +3°C° 0 mm 3 mps 605 mmHg 62%
    14:00 +3°C° 0 mm 3 mps 605 mmHg 61%
    15:00 +3°C° 0 mm 3 mps 604 mmHg 60%
    16:00 +3°C° 0 mm 3 mps 604 mmHg 59%
    17:00 +2°C° 0 mm 3 mps 604 mmHg 61%
    18:00 0°C° 0 mm 3 mps 603 mmHg 63%
    19:00 -2°C° 0 mm 3 mps 603 mmHg 65%
    20:00 -2°C° 0 mm 3 mps 603 mmHg 65%
    21:00 -4°C° 0 mm 3 mps 603 mmHg 65%
    22:00 -4°C° 0 mm 3 mps 604 mmHg 66%
    23:00 -3°C° 0 mm 2 mps 604 mmHg 66%

    30 September, Sunday

    Time Temperature Precipitation Wind Pressure Humidity
    00:00 -3°C° 0 mm 2 mps 604 mmHg 66%
    01:00 -3°C° 0 mm 2 mps 604 mmHg 67%
    02:00 -3°C° 0 mm 2 mps 604 mmHg 67%
    03:00 -3°C° 0 mm 2 mps 604 mmHg 67%
    04:00 -3°C° 0 mm 2 mps 604 mmHg 68%
    05:00 -2°C° 0 mm 2 mps 604 mmHg 68%
    06:00 0°C° 0 mm 1 mps 604 mmHg 69%
    07:00 0°C° 0 mm 1 mps 604 mmHg 69%
    08:00 +2°C° 0 mm 1 mps 605 mmHg 69%
    09:00 +4°C° 0 mm 1 mps 605 mmHg 69%
    10:00 +6°C° 0 mm 1 mps 606 mmHg 69%
    11:00 +6°C° 0 mm 1 mps 606 mmHg 67%
    12:00 +7°C° 0 mm 1 mps 606 mmHg 65%
    13:00 +7°C° 0 mm 1 mps 606 mmHg 64%
    14:00 +7°C° 0 mm 1 mps 606 mmHg 64%
    15:00 +7°C° 0 mm 1 mps 605 mmHg 65%
    16:00 +7°C° 0 mm 1 mps 605 mmHg 66%
    17:00 +5°C° 0 mm 1 mps 605 mmHg 70%
    18:00 +3°C° 0 mm 1 mps 605 mmHg 74%
    19:00 +2°C° 0 mm 1 mps 604 mmHg 79%
    20:00 +1°C° 0 mm 1 mps 604 mmHg 80%
    21:00 +1°C° 0 mm 1 mps 604 mmHg 81%
    22:00 0°C° 0 mm 1 mps 604 mmHg 82%
    23:00 0°C° 0 mm 1 mps 604 mmHg 81%
    Show more